Home   Weather   Førde   Past weeks

Flag for Norway Past Weather in Førde, Norway — Yesterday and Last 2 Weeks

Now
57 °F

Scattered showers. Scattered clouds.


Feels Like: 56 °F
Forecast: 47 / 59 °F
Wind: 6 mph from West

Location: Forde / Bringeland

Current Time: Aug 16, 2017 at 7:45:34 pm

Latest Report: Aug 16, 2017 at 7:20 pm


Visibility: N/A

Pressure: 29.98 "Hg

Humidity: 77%

Dew Point: 50 °F

Location of FørdeLocation

Past Weather in Førde — Graph

°F

Førde Temperature Yesterday

Maximum temperature yesterday: 61 °F (at 5:50 pm)
Minimum temperature yesterday: 50 °F (at 5:50 am)
Average temperature yesterday: 56 °F

High & Low Weather Summary for the Past Weeks

 TemperatureHumidityPressure
High70 °F (Aug 9, 3:50 pm)100% (Aug 2, 5:50 am)30.12 "Hg (Aug 2, 5:50 am)
Low46 °F (Aug 14, 5:50 am)43% (Aug 9, 3:50 pm)29.39 "Hg (Aug 4, 5:50 am)
Average55 °F80%29.83 "Hg
* Reported Aug 1 5:50 pm — Aug 16 5:50 pm, Førde. Weather by CustomWeather, © 2017

Note: Actual official high and low records may vary slightly from our data, if they occured in-between our weather recording intervals... More about our weather records

Advertising

Førde Weather History for the Previous 24 Hours

Scroll right to see more
 ConditionsComfort  
Time TempWeatherWind HumidityBarometerVisibility
5:50 pm
Wed, Aug 16
59 °FScattered showers. Scattered clouds.6 mph77%29.98 "HgN/A
5:20 pm57 °FSprinkles. Cloudy.7 mph82%29.98 "HgN/A
4:20 pm55 °FSprinkles. Cloudy.7 mph82%29.98 "HgN/A
3:50 pm55 °FSprinkles. Cloudy.3 mph94%29.98 "HgN/A
3:20 pm55 °FDrizzle. Cloudy.3 mph94%29.98 "HgN/A
2:50 pm52 °FSprinkles. Cloudy.3 mph100%29.98 "Hg5 mi
2:20 pm52 °FSprinkles. Cloudy.3 mph94%29.98 "Hg5 mi
1:50 pm52 °FSprinkles. Cloudy.3 mph100%29.95 "Hg3 mi
1:20 pm52 °FRain showers. Light fog.3 mph100%29.95 "Hg2 mi
12:50 pm52 °FRain showers. Broken clouds.6 mph94%29.95 "Hg4 mi
12:20 pm54 °FRain showers. Broken clouds.8 mph94%29.95 "HgN/A
11:50 am54 °FScattered showers. Cloudy.10 mph88%29.95 "HgN/A
11:20 am57 °FCool.7 mph82%29.92 "HgN/A
10:50 am54 °FScattered showers. Cloudy.3 mph94%29.92 "HgN/A
10:20 am54 °FScattered showers. Cloudy.3 mph88%29.92 "HgN/A
9:20 am54 °FScattered showers. Cloudy.2 mph88%29.92 "HgN/A
8:50 am54 °FSprinkles. Cloudy.6 mph88%29.92 "HgN/A
8:20 am52 °FScattered showers. Cloudy.2 mph100%29.89 "HgN/A
7:50 am50 °FCool.2 mph100%29.89 "HgN/A
6:50 am50 °FCool.1 mph94%29.89 "HgN/A
5:50 am50 °FSprinkles. Cloudy.N/A100%29.89 "HgN/A
10:50 pm
Tue, Aug 15
54 °FSprinkles. Overcast.N/A94%29.86 "HgN/A
10:20 pm54 °FSprinkles. Overcast.N/A94%29.86 "HgN/A
9:50 pm54 °FSprinkles. Light fog.N/A94%29.83 "HgN/A
9:20 pm54 °FRain showers. Fog.N/A94%29.83 "Hg1 mi
8:50 pm54 °FBroken clouds.N/A94%29.83 "Hg4 mi
8:20 pm55 °FBroken clouds.N/A88%29.83 "HgN/A
7:20 pm59 °FBroken clouds.7 mph68%29.80 "HgN/A
Weather by CustomWeather, © 2017

See weather overviewHow to use our weather pages